Location: Dodgeville
(42.9600°N, 90.1300°W)
Time: 00:57:13
(UTC-05:00)

Amateur Radio Satellites - All Passes

Search period start: 28 May 2015 00:27
Search period end: 29 May 2015 00:27
Location: Dodgeville, 42.9600°N, 90.1300°W

Satellite Date Start Highest point End Downlink Frequencies (MHz)
Time Altitude Azimuth
PCSat 28 May 00:28:01 00:32:49 34° 111° (ESE) 00:37:42 145.827
ISS 28 May 00:29:24 00:32:35 50° 332° (NNW) 00:35:46 145.825
AISAT 28 May 00:30:18 00:32:28 13° 272° (W) 00:34:25 437.250
ITUPSAT 1 28 May 00:30:49 00:33:18 15° 62° (ENE) 00:35:59 437.325
BEESAT 28 May 00:37:19 00:40:17 17° 63° (ENE) 00:43:25 436.000
BUGSAT 1 28 May 00:42:33 00:46:50 72° 285° (WNW) 00:51:04 437.445
SWISSCUBE 28 May 00:45:19 00:48:51 22° 65° (ENE) 00:52:32 437.505
TISAT 1 28 May 00:45:32 00:49:47 75° 257° (WSW) 00:54:05 437.305
GONETS M04 28 May 00:53:00 01:01:51 88° 263° (W) 01:10:35
DANDE 28 May 00:55:47 01:03:34 64° 266° (W) 01:09:39 436.750
TIGRISAT 28 May 00:57:24 01:00:29 18° 295° (WNW) 01:03:24 435.000
QB50P1 28 May 01:07:12 01:10:53 27° 291° (WNW) 01:14:27 145.935-145.965
Oscar 19 28 May 01:08:42 01:10:12 11° 86° (E) 01:12:02 437.125/150
POLYITAN 1 28 May 01:09:51 01:13:26 26° 292° (WNW) 01:16:55 437.675
BEESAT 3 28 May 01:17:43 01:19:42 13° 36° (NE) 01:21:48 437.485
O/OREOS (USA 219) 28 May 01:18:05 01:22:28 52° 63° (ENE) 01:26:51 437.305
UNISAT 6 28 May 01:19:39 01:21:11 11° 299° (WNW) 01:22:29 437.425
CUSAT 1 28 May 01:21:27 01:27:33 31° 275° (W) 01:32:23 437.405
Cosmos 2499 28 May 01:33:29 01:39:37 32° 69° (ENE) 01:45:56 435.465 / 435.565
NANOSAT C BR1 28 May 01:39:18 01:41:38 14° 297° (WNW) 01:43:47 145.865
QB50P2 28 May 01:48:56 01:50:21 11° 298° (WNW) 01:51:32 145.880/145.840
VERMONT LUNAR 28 May 01:51:14 01:53:51 23° 158° (SSE) 01:56:29 437.305
KKS-1 28 May 02:00:59 02:04:16 21° 65° (ENE) 02:07:39 437.445
AIST 2 28 May 02:04:54 02:06:14 11° 33° (NNE) 02:07:42 435.215
ITUPSAT 1 28 May 02:05:57 02:10:42 70° 259° (WSW) 02:15:27 437.325
BEESAT 2 28 May 02:06:57 02:10:28 26° 45° (NE) 02:13:57 435.950
ISS 28 May 02:07:06 02:09:32 19° 351° (N) 02:11:59 145.825
Gurwin Techsat 1B 28 May 02:08:23 02:10:19 12° 86° (E) 02:12:36 435.225
PCSat 28 May 02:11:10 02:16:12 38° 310° (NW) 02:21:15 145.827
BEESAT 28 May 02:13:03 02:17:44 58° 260° (W) 02:22:26 436.000
SWISSCUBE 28 May 02:21:56 02:26:28 43° 261° (W) 02:31:01 437.505
SO-50 28 May 02:25:11 02:28:34 21° 112° (ESE) 02:32:11 436.795
PHONESAT 2.4 28 May 02:33:01 02:35:19 17° 153° (SSE) 02:37:40 2401.200-2431.200
DANDE 28 May 02:43:19 02:45:00 11° 286° (WNW) 02:46:06 436.750
Oscar 19 28 May 02:45:11 02:50:23 86° 285° (WNW) 02:55:31 437.125/150
GONETS M04 28 May 02:51:55 02:57:34 18° 282° (WNW) 03:02:42
BEESAT 3 28 May 02:54:14 02:58:21 88° 56° (NE) 03:02:23 437.485
O/OREOS (USA 219) 28 May 02:58:48 03:01:30 15° 259° (W) 03:04:02 437.305
STARS 28 May 03:01:18 03:05:37 52° 72° (ENE) 03:09:59 437.465
ITAMSAT 1 28 May 03:01:43 03:06:38 40° 98° (E) 03:11:34 435.822/435.867
Cosmos 2499 28 May 03:26:19 03:33:01 46° 269° (W) 03:39:43 435.465 / 435.565
VERMONT LUNAR 28 May 03:27:35 03:30:44 51° 174° (S) 03:33:51 437.305
KKS-1 28 May 03:36:23 03:40:39 41° 262° (W) 03:44:55 437.445
MOZHAYETS 4 28 May 03:38:13 03:41:13 18° 65° (ENE) 03:44:22
AIST 2 28 May 03:41:29 03:45:43 64° 54° (NE) 03:49:51 435.215
ISS 28 May 03:44:14 03:46:47 20° 11° (NNE) 03:49:20 145.825
BEESAT 2 28 May 03:44:52 03:48:36 34° 244° (WSW) 03:52:15 435.950
Gurwin Techsat 1B 28 May 03:45:45 03:51:07 85° 285° (WNW) 03:56:26 435.225
SO-50 28 May 04:04:09 04:08:46 52° 309° (NW) 04:13:33 436.795
AO-7 28 May 04:07:47 04:14:46 30° 94° (E) 04:21:57 29.400- 29.500
PHONESAT 2.4 28 May 04:09:39 04:12:59 45° 168° (SSE) 04:16:19 2401.200-2431.200
HORYU 2 28 May 04:19:36 04:23:42 36° 97° (E) 04:27:48 437.375
Oscar 19 28 May 04:26:51 04:29:01 12° 301° (WNW) 04:30:57 437.125/150
STARS 28 May 04:39:43 04:42:26 15° 270° (W) 04:45:01 437.465
ITAMSAT 1 28 May 04:41:35 04:45:59 27° 294° (WNW) 04:50:17 435.822/435.867
Cosmos 2491 28 May 04:43:20 04:47:36 15° 53° (NE) 04:52:24 435.465 / 435.565
JAS-2 28 May 05:04:04 05:09:17 90° 74° (ENE) 05:14:39 435.910
VERMONT LUNAR 28 May 05:04:39 05:07:44 45° 190° (S) 05:10:48 437.305
MOZHAYETS 4 28 May 05:13:40 05:18:07 50° 261° (W) 05:22:34
CUBESAT XI-V 28 May 05:20:17 05:23:14 18° 64° (ENE) 05:26:20 437.345
ISS 28 May 05:20:23 05:23:39 66° 31° (NNE) 05:26:54 145.825
AIST 2 28 May 05:21:45 05:23:48 13° 250° (WSW) 05:25:40 435.215
Gurwin Techsat 1B 28 May 05:28:00 05:30:22 13° 301° (WNW) 05:32:29 435.225
STRAND 1 28 May 05:31:37 05:33:21 12° 58° (ENE) 05:35:20 437.568
YUBILEINY 28 May 05:42:36 05:42:46 10° 73° (ENE) 05:43:44 435.215
PHONESAT 2.4 28 May 05:47:30 05:50:55 55° 185° (S) 05:54:19 2401.200-2431.200
SO-50 28 May 05:48:31 05:50:31 12° 331° (NNW) 05:52:23 436.795
HORYU 2 28 May 05:56:40 06:00:10 23° 294° (WNW) 06:03:33 437.375
AO-7 28 May 05:59:54 06:08:11 65° 293° (WNW) 06:16:23 29.400- 29.500
PRISM 28 May 06:11:16 06:14:32 24° 68° (ENE) 06:17:54 437.425
M-CUBED/EXP-1 PRIME 28 May 06:26:27 06:29:47 25° 65° (ENE) 06:32:58 437.505
AUBIESAT-1 28 May 06:33:24 06:36:43 25° 65° (ENE) 06:39:54 437.475
AIST 1 28 May 06:36:19 06:37:30 11° 65° (ENE) 06:38:55
Cosmos 2491 28 May 06:37:49 06:46:39 68° 78° (ENE) 06:55:24 435.465 / 435.565
VERMONT LUNAR 28 May 06:42:20 06:44:30 17° 206° (SSW) 06:46:38 437.305
JAS-2 28 May 06:51:44 06:53:47 12° 301° (WNW) 06:55:35 435.910
CUBESAT XI-V 28 May 06:55:49 07:00:18 53° 261° (W) 07:04:51 437.345
ISS 28 May 06:57:38 06:59:46 16° 227° (SW) 07:01:50 145.825
CUTE-I 28 May 07:02:39 07:07:50 48° 99° (E) 07:13:02 437.470
RS-15 28 May 07:03:20 07:07:24 13° 98° (E) 07:12:29 29.354- 29.394
STRAND 1 28 May 07:06:44 07:11:50 84° 76° (ENE) 07:16:59 437.568
Cubesat XI-IV 28 May 07:23:33 07:28:56 74° 102° (ESE) 07:34:19 437.490
PHONESAT 2.4 28 May 07:25:44 07:28:43 27° 201° (SSW) 07:31:41 2401.200-2431.200
YUBILEINY 28 May 07:29:25 07:37:56 60° 92° (E) 07:46:29 435.215
PRISM 28 May 07:46:20 07:49:54 28° 264° (W) 07:53:28 437.425
AO-7 28 May 07:54:42 07:59:33 16° 314° (NW) 08:04:02 29.400- 29.500
M-CUBED/EXP-1 PRIME 28 May 08:00:54 08:04:34 29° 258° (WSW) 08:07:58 437.505
AUBIESAT-1 28 May 08:07:52 08:11:27 27° 258° (WSW) 08:14:46 437.475
AIST 1 28 May 08:11:24 08:15:47 72° 264° (W) 08:20:10
Cosmos 2491 28 May 08:35:46 08:42:51 27° 278° (W) 08:49:36 435.465 / 435.565
GOMX 1 28 May 08:40:02 08:44:35 28° 92° (E) 08:49:00 467.674
CUTE-I 28 May 08:43:21 08:47:40 25° 296° (WNW) 08:51:52 437.470
BRITE-PL 28 May 08:43:53 08:49:21 49° 97° (E) 08:54:34 437.365/2234.400
STRAND 1 28 May 08:49:56 08:51:50 12° 274° (W) 08:53:23 437.568
HO-68 28 May 08:59:08 09:05:25 33° 95° (E) 09:11:47 435.675
CINEMA 3 28 May 09:03:23 09:05:33 13° 86° (E) 09:07:55 145.822/145.860
Cubesat XI-IV 28 May 09:05:06 09:08:30 17° 299° (WNW) 09:11:41 437.490
RS-15 28 May 09:07:07 09:17:47 67° 117° (ESE) 09:28:49 29.354- 29.394
PCSat 28 May 09:14:33 09:19:31 35° 49° (NE) 09:24:30 145.827
YUBILEINY 28 May 09:27:41 09:35:22 32° 293° (WNW) 09:42:51 435.215
CANX-2 28 May 09:32:13 09:36:23 58° 100° (E) 09:40:32 2200.000
DOVE 4 28 May 09:33:45 09:38:49 59° 99° (E) 09:43:35 437.250
CUTE 1.7 + AOD 2 28 May 09:35:33 09:39:43 57° 100° (E) 09:43:51 437.475
CUBEBUG 2 28 May 09:44:54 09:47:49 18° 90° (E) 09:50:48 437.445
Cosmos 2504 28 May 09:45:38 09:53:22 46° 90° (E) 10:00:42 435.465 / 435.565
ANTELSAT 28 May 09:47:47 09:51:26 24° 67° (ENE) 09:55:09 437.575/2403.000
Oscar 11 28 May 09:49:15 09:52:31 21° 93° (E) 09:55:50 145.826/435.025
SEEDS 28 May 09:55:55 10:00:06 80° 100° (E) 10:04:17 437.485
COMPASS 1 28 May 10:06:51 10:11:02 85° 102° (ESE) 10:15:11 437.405
AAUSAT CUBESAT 2 28 May 10:17:46 10:21:55 84° 284° (WNW) 10:26:04 437.432
GOMX 1 28 May 10:17:49 10:22:48 38° 291° (WNW) 10:27:29 467.674
TIGRISAT 28 May 10:19:00 10:23:27 45° 72° (ENE) 10:27:53 435.000
BRITE-PL 28 May 10:22:55 10:27:33 26° 295° (WNW) 10:31:55 437.365/2234.400
QB50P1 28 May 10:25:11 10:28:37 24° 68° (ENE) 10:32:08 145.935-145.965
POLYITAN 1 28 May 10:27:51 10:31:25 26° 68° (ENE) 10:35:04 437.675
UWE-3 28 May 10:28:20 10:32:29 40° 97° (E) 10:36:30 435.000/436.395/437.385
FUNcube-1 28 May 10:34:32 10:38:31 36° 96° (E) 10:42:25 145.935
DELFI C3 28 May 10:35:25 10:39:19 48° 99° (E) 10:43:13 145.870
CINEMA 3 28 May 10:38:39 10:43:21 63° 286° (WNW) 10:47:48 145.822/145.860
UNISAT 6 28 May 10:39:50 10:44:31 77° 75° (ENE) 10:49:10 437.425
AISAT 28 May 10:43:11 10:44:30 11° 87° (E) 10:46:04 437.250
HO-68 28 May 10:46:32 10:53:25 50° 294° (WNW) 11:00:12 435.675
SO-50 28 May 10:54:37 10:58:55 29° 43° (NE) 11:03:14 436.795
NANOSAT C BR1 28 May 10:55:10 10:59:17 49° 72° (ENE) 11:03:27 145.865
HUMSAT D 28 May 10:57:55 11:01:34 29° 95° (E) 11:05:12 437.325/437.525
PCSat 28 May 10:58:00 11:02:58 37° 248° (WSW) 11:07:51 145.827
QB50P2 28 May 11:04:10 11:08:25 64° 74° (ENE) 11:12:42 145.880/145.840
CANX-2 28 May 11:09:40 11:11:54 14° 296° (WNW) 11:13:57 2200.000
DOVE 4 28 May 11:12:32 11:16:05 19° 297° (WNW) 11:19:20 437.250
CUTE 1.7 + AOD 2 28 May 11:12:56 11:15:13 14° 296° (WNW) 11:17:20 437.475
UKube-1 28 May 11:14:15 11:18:24 42° 99° (E) 11:22:33 .
ZACube-1 28 May 11:15:31 11:19:51 77° 285° (WNW) 11:24:04 437.345
POPSAT HIP 1 28 May 11:16:00 11:20:19 84° 73° (ENE) 11:24:38 437.405
DUCHIFAT 1 28 May 11:16:43 11:20:59 84° 76° (ENE) 11:25:18 145.980
CUBEBUG 2 28 May 11:20:33 11:24:49 44° 288° (WNW) 11:28:54 437.445
RS-15 28 May 11:20:38 11:30:58 43° 323° (NW) 11:41:32 29.354- 29.394
ANTELSAT 28 May 11:23:38 11:28:02 39° 263° (W) 11:32:22 437.575/2403.000
Oscar 11 28 May 11:24:52 11:28:49 35° 290° (WNW) 11:32:43 145.826/435.025
DX 1 28 May 11:25:05 11:29:27 61° 101° (E) 11:33:48 434.975-435.025
BUGSAT 1 28 May 11:33:06 11:37:15 88° 78° (ENE) 11:41:31 437.445
50 SAT 28 May 11:33:23 11:37:04 40° 98° (E) 11:40:43 437.505
SEEDS 28 May 11:34:39 11:35:21 10° 298° (WNW) 11:35:49 437.485
Cosmos 2504 28 May 11:39:22 11:46:56 37° 289° (WNW) 11:53:58 435.465 / 435.565
CUBEBUG 1 28 May 11:39:26 11:42:59 23° 93° (E) 11:46:34 437.445
VELOX 1 28 May 11:45:02 11:49:24 50° 99° (E) 11:53:45 145.980
ESTCUBE 1 28 May 11:53:51 11:58:05 38° 97° (E) 12:02:19 437.505/2401.250
TIGRISAT 28 May 11:56:59 12:00:26 19° 269° (W) 12:03:43 435.000
QB50P1 28 May 12:00:30 12:04:22 31° 264° (W) 12:08:12 145.935-145.965
GONETS M04 28 May 12:01:12 12:07:16 22° 80° (E) 12:13:45
POLYITAN 1 28 May 12:03:27 12:07:15 29° 265° (W) 12:11:01 437.675
UWE-3 28 May 12:05:32 12:08:45 20° 294° (WNW) 12:11:47 435.000/436.395/437.385
FUNcube-1 28 May 12:11:20 12:14:39 21° 293° (WNW) 12:17:48 145.935
DELFI C3 28 May 12:11:45 12:14:05 15° 295° (WNW) 12:16:16 145.870
SPROUT 28 May 12:13:14 12:15:39 15° 89° (E) 12:18:14 437.525
AISAT 28 May 12:17:11 12:21:41 72° 285° (WNW) 12:26:09 437.250
UNISAT 6 28 May 12:20:14 12:21:54 11° 273° (W) 12:23:17 437.425
DANDE 28 May 12:22:48 12:28:58 31° 85° (E) 12:36:06 436.750
Oscar 19 28 May 12:25:24 12:29:06 21° 63° (ENE) 12:32:57 437.125/150
TISAT 1 28 May 12:30:22 12:33:00 16° 91° (E) 12:35:47 437.305
NANOSAT C BR1 28 May 12:32:50 12:35:28 15° 270° (W) 12:37:56 145.865
HUMSAT D 28 May 12:33:50 12:37:13 24° 292° (WNW) 12:40:28 437.325/437.525
SO-50 28 May 12:34:55 12:39:40 46° 242° (WSW) 12:44:19 436.795
HO-68 28 May 12:38:16 12:39:39 10° 313° (NW) 12:40:35 435.675
CUSAT 1 28 May 12:42:27 12:49:39 52° 92° (E) 12:57:40 437.405
QB50P2 28 May 12:43:07 12:44:50 12° 272° (W) 12:46:18 145.880/145.840
UKube-1 28 May 12:51:06 12:54:16 19° 295° (WNW) 12:57:18 .
DX 1 28 May 13:02:46 13:05:15 15° 297° (WNW) 13:07:34 434.975-435.025
50 SAT 28 May 13:09:03 13:11:30 16° 294° (WNW) 13:13:48 437.505
CUBEBUG 1 28 May 13:15:22 13:19:25 34° 290° (WNW) 13:23:25 437.445
VELOX 1 28 May 13:22:34 13:25:37 18° 296° (WNW) 13:28:31 145.980
AO-7 28 May 13:22:36 13:24:26 11° 40° (NE) 13:26:45 29.400- 29.500
Gurwin Techsat 1B 28 May 13:29:28 13:33:30 23° 64° (ENE) 13:37:40 435.225
ESTCUBE 1 28 May 13:31:10 13:34:46 23° 293° (WNW) 13:38:15 437.505/2401.250
RS-15 28 May 13:38:47 13:47:23 24° 356° (N) 13:56:14 29.354- 29.394
SPROUT 28 May 13:47:52 13:52:06 51° 287° (WNW) 13:56:17 437.525
GONETS M04 28 May 13:54:21 14:03:13 80° 280° (W) 14:12:08
Oscar 19 28 May 14:03:00 14:08:05 55° 260° (W) 14:13:13 437.125/150
DANDE 28 May 14:04:18 14:11:39 63° 285° (WNW) 14:20:08 436.750
TISAT 1 28 May 14:04:58 14:09:05 45° 288° (WNW) 14:13:08 437.305
ITUPSAT 1 28 May 14:06:01 14:10:06 28° 95° (E) 14:14:14 437.325
Cosmos 2499 28 May 14:11:47 14:18:00 27° 85° (E) 14:24:07 435.465 / 435.565
BEESAT 28 May 14:12:31 14:16:48 33° 96° (E) 14:21:08 436.000
ITAMSAT 1 28 May 14:20:31 14:25:38 68° 73° (ENE) 14:30:49 435.822/435.867
SWISSCUBE 28 May 14:21:06 14:25:40 44° 98° (E) 14:30:14 437.505
CUSAT 1 28 May 14:25:32 14:32:39 39° 293° (WNW) 14:40:16 437.405
AO-7 28 May 15:07:36 15:15:16 45° 62° (ENE) 15:23:05 29.400- 29.500
Gurwin Techsat 1B 28 May 15:08:02 15:13:11 50° 261° (W) 15:18:21 435.225
JAS-2 28 May 15:16:38 15:22:43 44° 70° (ENE) 15:28:13 435.910
HORYU 2 28 May 15:18:38 15:22:46 38° 70° (ENE) 15:26:57 437.375
KKS-1 28 May 15:26:33 15:30:39 34° 97° (E) 15:34:43 437.445
O/OREOS (USA 219) 28 May 15:31:04 15:35:27 52° 108° (ESE) 15:39:51 437.305
ITUPSAT 1 28 May 15:43:43 15:48:02 33° 291° (WNW) 15:52:16 437.325
BEESAT 28 May 15:50:29 15:54:34 28° 293° (WNW) 15:58:35 436.000
DANDE 28 May 15:52:26 15:57:00 15° 309° (NW) 16:01:21 436.750
RS-15 28 May 15:54:20 16:04:24 35° 29° (NNE) 16:15:03 29.354- 29.394
GONETS M04 28 May 15:56:00 16:01:50 18° 303° (WNW) 16:07:14
SWISSCUBE 28 May 15:59:35 16:03:16 22° 295° (WNW) 16:06:52 437.505
ITAMSAT 1 28 May 16:02:37 16:05:44 15° 271° (W) 16:08:37 435.822/435.867
Cosmos 2499 28 May 16:02:46 16:10:46 61° 282° (WNW) 16:18:10 435.465 / 435.565
STARS 28 May 16:26:20 16:30:48 88° 282° (WNW) 16:35:12 437.465
CUTE-I 28 May 16:49:18 16:51:24 13° 58° (ENE) 16:53:45 437.470
BEESAT 3 28 May 16:50:03 16:51:46 13° 110° (ESE) 16:53:39 437.485
HORYU 2 28 May 16:56:06 16:59:34 21° 267° (W) 17:02:56 437.375
AO-7 28 May 17:00:16 17:08:07 44° 261° (W) 17:15:58 29.400- 29.500
JAS-2 28 May 17:02:12 17:07:58 31° 265° (W) 17:13:06 435.910
KKS-1 28 May 17:03:28 17:07:08 24° 293° (WNW) 17:10:42 437.445
MOZHAYETS 4 28 May 17:07:53 17:12:03 35° 96° (E) 17:16:16
Cubesat XI-IV 28 May 17:08:45 17:12:18 19° 62° (ENE) 17:16:03 437.490
O/OREOS (USA 219) 28 May 17:12:02 17:15:14 18° 308° (NW) 17:18:19 437.305
YUBILEINY 28 May 17:38:45 17:46:07 31° 66° (ENE) 17:53:40 435.215
BEESAT 2 28 May 17:39:02 17:42:44 34° 116° (ESE) 17:46:30 435.950
AIST 2 28 May 17:43:21 17:44:21 11° 109° (ESE) 17:45:36 435.215
Cosmos 2491 28 May 17:48:40 17:52:41 15° 76° (ENE) 17:57:20 435.465 / 435.565
Cosmos 2499 28 May 18:03:29 18:05:44 11° 305° (NW) 18:07:24 435.465 / 435.565
RS-15 28 May 18:06:59 18:18:40 88° 57° (ENE) 18:30:50 29.354- 29.394
BEESAT 3 28 May 18:25:13 18:29:16 65° 306° (NW) 18:33:23 437.485
CUTE-I 28 May 18:25:25 18:30:45 84° 75° (ENE) 18:36:07 437.470
MOZHAYETS 4 28 May 18:45:25 18:49:08 25° 293° (WNW) 18:52:48
Cubesat XI-IV 28 May 18:46:42 18:51:58 63° 258° (WSW) 18:57:17 437.490
CUBESAT XI-V 28 May 18:51:34 18:55:53 36° 96° (E) 19:00:14 437.345
STRAND 1 28 May 19:16:52 19:21:08 27° 94° (E) 19:25:29 437.568
BEESAT 2 28 May 19:17:18 19:20:52 27° 314° (NW) 19:24:26 435.950
AIST 2 28 May 19:18:07 19:22:22 79° 304° (NW) 19:26:41 435.215
PRISM 28 May 19:27:12 19:30:59 34° 97° (E) 19:34:48 437.425
HO-68 28 May 19:29:13 19:35:04 29° 60° (ENE) 19:41:04 435.675
YUBILEINY 28 May 19:35:04 19:43:37 62° 268° (W) 19:52:05 435.215
Cosmos 2504 28 May 19:38:27 19:42:06 15° 58° (ENE) 19:46:07 435.465 / 435.565
Cosmos 2491 28 May 19:39:27 19:48:12 76° 95° (E) 19:57:03 435.465 / 435.565
M-CUBED/EXP-1 PRIME 28 May 19:42:19 19:43:30 12° 96° (E) 19:44:52 437.505
GOMX 1 28 May 19:48:20 19:52:58 34° 68° (ENE) 19:57:52 467.674
AUBIESAT-1 28 May 19:48:32 19:49:51 12° 96° (E) 19:51:19 437.475
BRITE-PL 28 May 19:54:53 19:59:57 57° 72° (ENE) 20:05:25 437.365/2234.400
CINEMA 3 28 May 20:05:28 20:08:34 17° 63° (ENE) 20:11:50 145.822/145.860
BEESAT 3 28 May 20:06:54 20:08:07 11° 327° (NNW) 20:09:13 437.485
CUTE-I 28 May 20:09:20 20:11:38 12° 274° (W) 20:13:37 437.470
RS-15 28 May 20:20:48 20:30:01 26° 256° (WSW) 20:38:56 29.354- 29.394
CANX-2 28 May 20:25:53 20:29:57 46° 73° (ENE) 20:34:03 2200.000
CUTE 1.7 + AOD 2 28 May 20:29:09 20:33:12 45° 73° (ENE) 20:37:17 437.475
CUBESAT XI-V 28 May 20:29:18 20:33:12 25° 292° (WNW) 20:37:00 437.345
DOVE 4 28 May 20:39:14 20:44:20 65° 74° (ENE) 20:49:39 437.250
ZACube-1 28 May 20:39:26 20:40:32 11° 61° (ENE) 20:41:52 437.345
AIST 1 28 May 20:41:34 20:45:46 64° 95° (E) 20:50:02
CUBEBUG 2 28 May 20:43:50 20:47:10 20° 66° (ENE) 20:50:37 437.445
Oscar 11 28 May 20:45:18 20:48:22 20° 66° (ENE) 20:51:33 145.826/435.025
SEEDS 28 May 20:48:34 20:52:44 61° 75° (ENE) 20:56:54 437.485
STRAND 1 28 May 20:55:41 21:00:29 39° 291° (WNW) 21:05:13 437.568
COMPASS 1 28 May 20:58:40 21:02:48 64° 75° (ENE) 21:06:57 437.405
AIST 2 28 May 20:59:33 21:01:43 13° 325° (NW) 21:03:46 435.215
PRISM 28 May 21:03:03 21:06:16 22° 293° (WNW) 21:09:25 437.425
AAUSAT CUBESAT 2 28 May 21:09:06 21:13:15 72° 76° (ENE) 21:17:24 437.432
HO-68 28 May 21:15:17 21:22:24 61° 258° (WSW) 21:29:31 435.675
M-CUBED/EXP-1 PRIME 28 May 21:15:33 21:18:39 36° 293° (WNW) 21:21:44 437.505
AUBIESAT-1 28 May 21:21:49 21:24:54 36° 293° (WNW) 21:27:58 437.475
DELFI C3 28 May 21:23:42 21:27:19 33° 71° (ENE) 21:30:59 145.870
UWE-3 28 May 21:25:51 21:30:12 39° 71° (ENE) 21:34:33 435.000/436.395/437.385
GOMX 1 28 May 21:26:20 21:31:03 34° 266° (W) 21:35:56 467.674
Cosmos 2504 28 May 21:29:40 21:36:55 83° 81° (E) 21:44:10 435.465 / 435.565
FUNcube-1 28 May 21:30:49 21:34:55 34° 70° (ENE) 21:39:03 145.935
BRITE-PL 28 May 21:35:08 21:38:58 20° 272° (W) 21:42:47 437.365/2234.400
YUBILEINY 28 May 21:37:04 21:38:48 10° 287° (WNW) 21:39:46 435.215
Cosmos 2491 28 May 21:39:03 21:46:09 25° 298° (WNW) 21:53:00 435.465 / 435.565
CINEMA 3 28 May 21:40:17 21:45:16 66° 259° (W) 21:50:18 145.822/145.860
AISAT 28 May 21:42:04 21:43:58 13° 62° (ENE) 21:46:05 437.250
HUMSAT D 28 May 21:50:37 21:54:09 26° 68° (ENE) 21:57:43 437.325/437.525
ISS 28 May 22:02:18 22:03:19 11° 131° (SE) 22:04:27 145.825
CANX-2 28 May 22:03:28 22:06:10 16° 270° (W) 22:08:44 2200.000
CUTE 1.7 + AOD 2 28 May 22:06:38 22:09:24 16° 270° (W) 22:12:00 437.475
UKube-1 28 May 22:09:52 22:13:54 41° 71° (ENE) 22:18:01 .
GONETS M04 28 May 22:10:59 22:12:46 11° 49° (NE) 22:15:13
ZACube-1 28 May 22:11:40 22:16:16 89° 256° (WSW) 22:20:52 437.345
CUBEBUG 2 28 May 22:18:53 22:23:31 50° 261° (W) 22:28:09 437.445
50 SAT 28 May 22:19:01 22:22:24 28° 70° (ENE) 22:25:51 437.505
DOVE 4 28 May 22:19:14 22:22:38 17° 273° (W) 22:25:53 437.250
Oscar 11 28 May 22:20:12 22:24:19 40° 262° (W) 22:28:24 145.826/435.025
DX 1 28 May 22:21:21 22:25:38 59° 73° (ENE) 22:29:57 434.975-435.025
AIST 1 28 May 22:22:17 22:23:59 12° 295° (WNW) 22:25:28
SEEDS 28 May 22:27:19 22:29:00 12° 272° (W) 22:30:28 437.485
UNISAT 6 28 May 22:32:44 22:34:58 14° 89° (E) 22:37:22 437.425
CUBEBUG 1 28 May 22:36:45 22:40:06 22° 67° (ENE) 22:43:34 437.445
COMPASS 1 28 May 22:37:37 22:38:59 11° 272° (W) 22:40:08 437.405
VELOX 1 28 May 22:43:22 22:47:38 50° 72° (ENE) 22:51:58 145.980
ESTCUBE 1 28 May 22:54:23 22:58:31 39° 71° (ENE) 23:02:43 437.505/2401.250
DELFI C3 28 May 22:59:32 23:02:33 19° 268° (W) 23:05:28 145.870
POPSAT HIP 1 28 May 23:02:11 23:04:04 13° 88° (E) 23:06:10 437.405
DUCHIFAT 1 28 May 23:02:29 23:04:17 13° 88° (E) 23:06:17 145.980
UWE-3 28 May 23:03:08 23:06:52 23° 268° (W) 23:10:29 435.000/436.395/437.385
DANDE 28 May 23:04:14 23:10:28 26° 60° (ENE) 23:15:52 436.750
FUNcube-1 28 May 23:07:29 23:11:18 25° 267° (W) 23:15:02 145.935
SPROUT 28 May 23:08:56 23:11:10 14° 64° (ENE) 23:13:34 437.525
ANTELSAT 28 May 23:14:44 23:18:51 39° 97° (E) 23:22:54 437.575/2403.000
AISAT 28 May 23:15:34 23:20:01 72° 257° (WSW) 23:24:31 437.250
BUGSAT 1 28 May 23:16:23 23:18:07 12° 88° (E) 23:20:04 437.445
CUSAT 1 28 May 23:21:48 23:28:26 39° 67° (ENE) 23:33:44 437.405
TISAT 1 28 May 23:24:02 23:26:23 15° 64° (ENE) 23:28:54 437.305
Cosmos 2504 28 May 23:25:06 23:29:26 16° 279° (W) 23:33:23 435.465 / 435.565
HUMSAT D 28 May 23:25:58 23:29:48 30° 265° (W) 23:33:35 437.325/437.525
ISS 28 May 23:36:04 23:39:18 89° 305° (NW) 23:42:35 145.825
QB50P1 28 May 23:44:23 23:48:22 37° 97° (E) 23:52:21 145.935-145.965
TIGRISAT 28 May 23:46:25 23:50:50 86° 103° (ESE) 23:55:07 435.000
UKube-1 28 May 23:47:08 23:50:16 19° 268° (W) 23:53:17 .
POLYITAN 1 28 May 23:47:30 23:51:34 41° 98° (E) 23:55:37 437.675
50 SAT 28 May 23:53:51 23:57:07 23° 266° (W) 00:00:20 437.505
PCSat 28 May 23:57:56 00:02:12 25° 109° (ESE) 00:06:37 145.827
DX 1 29 May 00:00:07 00:02:20 13° 271° (W) 00:04:21 434.975-435.025
O/OREOS (USA 219) 29 May 00:02:08 00:04:33 15° 50° (NE) 00:07:08 437.305
GONETS M04 29 May 00:03:44 00:12:19 55° 75° (ENE) 00:20:50
UNISAT 6 29 May 00:07:55 00:12:12 53° 287° (WNW) 00:16:23 437.425
CUBEBUG 1 29 May 00:12:14 00:16:17 36° 263° (W) 00:20:20 437.445
NANOSAT C BR1 29 May 00:14:44 00:19:02 82° 101° (E) 00:23:18 145.865
